Tracking 17145 objects as of 30-May-2015
HD Live streaming from Space Station

ERS 1

Track ERS 1 now!
10-day predictions
ERS 1 is classified as:


NORAD ID: 21574
Int'l Code: 1991-050A
Perigee: 750.2 km
Apogee: 799.1 km
Inclination: 98.4 °
Period: 100.2 minutes
Semi major axis: 7145 km
RCS: 11.0086 m2 (large)
Launch date: July 17, 1991
Source: European Space Agency (ESA)
Your satellite tracking list
Your tracking list is empty





NASA's NSSDC Master Catalog

Two Line Element Set (TLE):
1 21574U 91050A   15148.84464934  .00000342  00000-0  12816-3 0  9995
2 21574 098.3653 101.1813 0034179 040.0901 012.4525 14.37278107249798

Source of the keplerian elements: AFSPC

N2YO: 281